Voltar ao catálogo

FENGYUN 1C DEB

AtivoPO
NORAD 30639·DEBRIS·🇨🇳 China

Lançado May 10, 1999 de Taiyuan Satellite Launch Center

Loading…

Próximas Passagens (próximas 24 horas)

TLE

AtualizadoSource: Space-Track

Época: Sep 13, 2026, 20:51 UTC

1 30639U 99025ANW 26256.86897773  .00005036  00000-0  16991-2 0  9994
2 30639  99.0279  25.9458 0064859 197.3363 162.5606 14.36238957  6624

Acompanhe FENGYUN 1C DEB em tempo real com AllMySat

Download on the App Store